Melilla, Spain

7:06 AM CET on March 23, 2017 (GMT +0100)
Melilla

Weather History for GEML - November, 2012

Change the Weather History Date:

Sunday, November 4, 2012

  Actual Average Record
Temperature  
Mean Temperature 78 °F -  
Max Temperature 88 °F 68 °F 88 °F (2012)
Min Temperature 67 °F 56 °F 57 °F (2000)
Cooling Degree Days 12    
Growing Degree Days 28 (Base 50)    
Moisture  
Dew Point 60 °F    
Average Humidity 56    
Maximum Humidity 88    
Minimum Humidity 28    
Precipitation  
Precipitation 0.00 in 0.06 in - ()
Sea Level Pressure  
Sea Level Pressure 29.89 in    
Wind  
Wind Speed 4 mph ()    
Max Wind Speed 13 mph    
Max Gust Speed 25 mph    
Visibility 12.5 miles    
Events      
Averages and records for this station are not official NWS values.
T = Trace of Precipitation, MM = Missing Value Source: Averaged Metar Reports

Daily Weather History Graph

Daily Weather History Graph

Search for Another Location

Airport or City:

Trip Planner

Search our weather history database for the weather conditions in past years. The results will help you decide how hot, cold, wet, or windy it might be!

Date:

Astronomy

Nov. 04, 2012 Rise Set
Actual Time 7:36 AM CET 6:13 PM CET
Civil Twilight 7:09 AM CET 6:40 PM CET
Nautical Twilight 6:39 AM CET 7:10 PM CET
Astronomical Twilight 6:09 AM CET 7:40 PM CET
Moon 10:40 PM CET (11/4) 12:08 PM CET (11/4)
Length of Visible Light 11h 30m
Length of Day
10h 37m
Waning Gibbous, 74% of the Moon is Illuminated
Nov 4
Waning Gibbous
Nov 7
Last Quarter
Nov 13
New
Nov 20
First Quarter
Nov 28
Full

Hourly Weather History & Observations

Time (CET) Temp. Heat Index Dew Point Humidity Pressure Visibility Wind Dir Wind Speed Gust Speed Precip Events Conditions
6:00 AM 68.0 °F - 62.6 °F 83% 29.92 in - SW 2.3 mph - N/A   Clear
6:30 AM 66.2 °F - 62.6 °F 88% 29.89 in - NW 1.2 mph - N/A   Clear
7:00 AM 68 °F - 62 °F 77% 29.89 in 6 mi Calm Calm - -   Scattered Clouds
7:00 AM 68.0 °F - 62.6 °F 83% 29.89 in - Calm Calm - N/A   Clear
7:30 AM 68.0 °F - 64.4 °F 88% 29.89 in - Variable 2.3 mph - N/A   Clear
8:00 AM 68.0 °F - 62.6 °F 83% 29.89 in - Variable 1.2 mph - N/A   Clear
8:30 AM 69.8 °F - 62.6 °F 78% 29.89 in - Calm Calm - N/A   Clear
9:00 AM 69.8 °F - 64.4 °F 83% 29.89 in - Variable 1.2 mph - N/A   Clear
9:30 AM 71.6 °F - 64.4 °F 78% 29.92 in - Calm Calm - N/A   Clear
10:00 AM 73.4 °F - 64.4 °F 73% 29.89 in - Calm Calm - N/A   Clear
10:30 AM 84.2 °F 83.0 °F 55.4 °F 37% 29.89 in - SW 12.7 mph 25.3 mph N/A   Clear
11:00 AM 84.2 °F 83.0 °F 55.4 °F 37% 29.89 in - SW 11.5 mph - N/A   Clear
11:30 AM 87.8 °F 86.1 °F 55.4 °F 33% 29.89 in - WSW 8.1 mph - N/A   Clear
12:00 PM 87.8 °F 86.1 °F 55.4 °F 33% 29.89 in - WSW 9.2 mph - N/A   Clear
12:30 PM 87.8 °F 86.1 °F 55.4 °F 33% 29.89 in - West 6.9 mph - N/A   Clear
1:00 PM 87 °F - 58 °F 28% 29.87 in 31 mi WNW 9.2 mph - -   Partly Cloudy
1:00 PM 86.0 °F 84.5 °F 55.4 °F 35% 29.89 in - WNW 9.2 mph - N/A   Clear
1:30 PM 84.2 °F 83.5 °F 57.2 °F 40% 29.89 in - WNW 8.1 mph - N/A   Clear
2:00 PM 82.4 °F 82.0 °F 57.2 °F 42% 29.86 in - West 8.1 mph - N/A   Clear
2:30 PM 82.4 °F 82.0 °F 57.2 °F 42% 29.86 in - West 9.2 mph - N/A   Clear
3:00 PM 82.4 °F 82.0 °F 57.2 °F 42% 29.86 in - West 8.1 mph - N/A   Clear
3:30 PM 80.6 °F 81.1 °F 59.0 °F 48% 29.89 in - West 6.9 mph - N/A   Clear
4:00 PM 80.6 °F 81.1 °F 59.0 °F 48% 29.89 in - WSW 6.9 mph - N/A   Clear
4:30 PM 80.6 °F 81.1 °F 59.0 °F 48% 29.89 in - West 9.2 mph - N/A   Clear
5:00 PM 80.6 °F 81.1 °F 59.0 °F 48% 29.89 in - West 6.9 mph - N/A   Clear
5:30 PM 78.8 °F - 60.8 °F 54% 29.89 in - WNW 6.9 mph - N/A   Clear
6:00 PM 77.0 °F - 59.0 °F 54% 29.89 in - WSW 5.8 mph - N/A   Clear
6:30 PM 77.0 °F - 59.0 °F 54% 29.89 in - WSW 4.6 mph - N/A   Clear
7:00 PM 77 °F - 60 °F 46% 29.90 in 19 mi WSW 4.6 mph - -   Partly Cloudy
7:00 PM 77.0 °F - 60.8 °F 57% 29.92 in - WSW 4.6 mph - N/A   Clear
7:30 PM 77.0 °F - 60.8 °F 57% 29.92 in - West 5.8 mph - N/A   Clear